Location: Newark
(9.4667°S, 159.8167°E)
Time: 08:30:31
(UTC+00:00)

Courier 1B Rocket - Pass Details

Date: 25 November 2019
Orbit: 921 x 1202 km, 28.2° (Epoch: 15 December)

Event Time Altitude Azimuth Distance (km) Brightness Sun altitude
Rises 16:46:25 0° 231° (SW) 3,915 - -28.3°
Exits shadow 16:48:02 - 224° (SW) 3,469 7.7 -28.0°
Reaches altitude 10° 16:50:22 10° 212° (SSW) 2,898 7.4 -27.5°
Maximum altitude 16:54:49 17° 172° (S) 2,330 7.3 -26.5°
Drops below altitude 10° 16:59:06 10° 132° (SE) 2,763 8.3 -25.6°
Sets 17:02:44 0° 113° (ESE) 3,661 9.4 -24.8°
